www.pogodaiklimat.ru

Погода и климат >> Архив погоды >> Индия >> Jhansi


ПОГОДА в Jhansi

  • Прогноз погоды в Jhansi
  • Монитор погоды в Jhansi
  • Климат города

АРХИВ ПОГОДЫ в Jhansi

Время (UTC), дата Ветер
(напр.,м/с)
 
Видим.   Явления Облачность Т
(С)
Тd
(С)
f
(%)
Тe
(С)
Тes
(С)
Комфортность P
(гПа)
Po
(гПа)
Тmin
(С)
Tmax
(С)
R
(мм)
R24
(мм)
S
(см)
12 18.09 СЗ 2 4000 м 3/0
[Ac trans]
+33.6 +22.2 51 +42 +43 опасность
перегрева
1005.6 1006.0 +34.3
03 19.09 З 2 4000 м ясно +30.0 +21.0 59 +38 +43 очень
душно
1009.1 1009.0 +25.0 +34.3
06 19.09 СЗ 2 4000 м ясно +33.8 +21.1 48 +41 +59 опасность
перегрева
1008.0 1008.0
09 19.09 СЗ 3 4000 м ясно +35.0 +20.4 43 +42 +53 опасность
перегрева
1005.6 1006.0
12 19.09 СЗ 2 4000 м ясно +34.0 +20.6 46 +41 +42 опасность
перегрева
1004.5 1005.0 +35.6
03 20.09 С 1 4000 м 3/0
[Ci fib]
+29.0 +21.9 66 +37 +43 очень
душно
1007.4 1007.0 +25.4 +35.6
06 20.09 В 2 4000 м 3/0
[Ci fib]
+33.2 +21.1 49 +41 +57 опасность
перегрева
1007.1 1007.0
09 20.09 ЮВ 2 4000 м 3/0
[Ac trans]
+35.2 +20.7 43 +42 +52 опасность
перегрева
1005.3 1005.0
12 20.09 СВ 2 4000 м 4/0
[Ac trans Ci fib]
+32.8 +22.0 53 +41 +42 опасность
перегрева
1004.9 1005.0 +35.3
03 21.09 ЮВ 4 4000 м 8/5 750 м
[Cu Sc Ac trans]
+26.2 +23.3 84 +35 +37 очень
душно
1008.7 1009.0 +24.2 +35.3
06 21.09 ЮВ 3 4000 м мгла 9/5 750 м
[Cb calv As trans]
+28.6 +24.0 76 +40 +43 очень
душно
1007.6 1008.0
09 21.09 ЮВ 4 4000 м мгла 9/5 750 м
[Cb calv As trans]
+29.4 +23.3 70 +40 +42 очень
душно
1006.0 1006.0
12 21.09 СЗ 2 2000 м слабый дождь {морось} 10/6 750 м
[Cb calv As op]
+25.0 +25.0 100 +36 +36 очень
душно
1005.9 1006.0 +29.6 16
03 22.09 ЮВ 2 4000 м мгла 9/5 750 м
[Cb calv As trans]
+26.4 +22.9 81 +35 +37 очень
душно
1007.1 1007.0 +24.0 +29.6 23
06 22.09 В 2 4000 м мгла 9/5 750 м
[Cb calv As trans]
+27.2 +22.5 76 +36 +40 очень
душно
1007.8 1008.0
09 22.09 ЮВ 4 4000 м мгла 9/5 750 м
[Cb calv As trans]
+28.0 +23.0 74 +37 +40 очень
душно
1006.0 1006.0 0.0
12 22.09 ЮВ 2 2000 м мгла {дождь} 8/5 750 м
[Cu Sc Ac trans]
+27.6 +23.2 77 +37 +37 очень
душно
1005.6 1006.0 +28.5 0.6
03 23.09 З 2 4000 м 3/0
[Ci fib]
+27.0 +22.9 78 +36 +41 очень
душно
1010.8 1011.0 +23.3 +28.2 0.6
06 23.09 В 3 4000 м мгла 8/5 750 м
[Cu Sc Ac trans]
+29.4 +23.0 68 +39 +43 очень
душно
1010.8 1011.0
09 23.09 В 3 2000 м мгла 9/5 750 м
[Cu Sc Ac trans]
+31.8 +22.1 57 +41 +44 опасность
перегрева
1009.1 1009.0 0.0
12 23.09 Ю 2 4000 м {морось} 6/3 750 м
[Sc Ac trans]
+30.8 +23.9 67 +42 +43 опасность
перегрева
1008.3 1008.0 +32.3 0.0
03 24.09 В 2 4000 м 8/5 750 м
[Cu Sc Ac trans]
+26.6 +22.1 76 +34 +36 очень
душно
1011.2 1011.0 +23.0 +32.3 0.0
06 24.09 Ю 2 2000 м мгла 9/5 750 м
[Cu Sc Ac trans]
+27.2 +23.4 80 +37 +41 очень
душно
1011.2 1011.0
09 24.09 ЮЗ 2 4000 м 8/4 750 м
[Cu Sc Ac trans]
+31.2 +24.0 66 +43 +47 опасность
перегрева
1009.9 1010.0
12 24.09 З 2 4000 м 4/0
[Ac trans Ci fib]
+29.8 +24.7 74 +42 +43 опасность
перегрева
1008.5 1009.0 +31.9 8
03 25.09 ЮЗ 2 4000 м 4/0
[Ac trans Ci fib]
+28.0 +23.9 78 +39 +43 очень
душно
1011.2 1011.0 +23.2 +31.9 8
06 25.09 З 2 4000 м 4/0
[Ac trans Ci fib]
+32.0 +24.3 64 +44 +57 опасность
перегрева
1011.5 1012.0
09 25.09 З 3 4000 м 4/0
[Ac trans Ci fib]
+33.6 +22.9 54 +44 +52 опасность
перегрева
1009.3 1009.0

 

Местоположение метеостанции Jhansi (Uttar Pradesh, Индия): широта 25.45 долгота 78.62 высота над уровнем моря 258 м.

В архиве по умолчанию представлена погода в Jhansi за последнюю неделю. Архивные данные за месяц целиком и за предыдущие месяцы, начиная с января 2011 года, Вы можете получить, выбрав интересующий диапазон дат из раскрывающегося списка и нажав кнопку "Ввод!".


*Определитесь, кто Вы:
робот инопланетянин человек

Внимание! Время в таблицах - всемирное. Для получения местного времени необходимо прибавить поправку, которая в Jhansi равна 5.5 ч.

Смотрите также архив погоды в соседних городах и на ближайших метеорологических станциях:

Погода в Tikamgarh (Madhya Pradesh, Индия) (79 км)
Погода в Nowgong (Madhya Pradesh, Индия) (94 км)
Погода в Gwalior (Madhya Pradesh, Индия) (94 км)
Погода в Shivpuri (Madhya Pradesh, Индия) (98 км)
Погода в Khajuraho (Madhya Pradesh, Индия) (141 км)
Погода в Guna (Madhya Pradesh, Индия) (158 км)
Погода в Hamirpur (Uttar Pradesh, Индия) (163 км)
Погода в Banda (Uttar Pradesh, Индия) (176 км)
Погода в Sagar (Madhya Pradesh, Индия) (178 км)
Погода в Sheopur (Madhya Pradesh, Индия) (196 км)

Пояснения к столбцам:

Ветер - указаны скорость ветра в м/с - средняя за 10 мин, порывы в срок и между сроками (в фигурных скобках) и направление, откуда дует ветер: С - северный, СВ - северо-восточный, В - восточный, ЮВ - юго-восточный, Ю - южный, ЮЗ - юго-западный, З - западный, СЗ - северо-западный.
Видимость - горизонтальная дальность видимости в метрах или километрах. При видимости от 1 до 10 км при отсутствии осадков обычно наблюдается дымка, при ухудшении видимости до 1 км и менее - туман. В сухую погоду видимость может ухудшаться дымом, пылью или мглою.
Явления - указаны атмосферные явления, наблюдавшиеся в срок или в последний час перед сроком; фигурными скобками обозначены явления, наблюдавшиеся между сроками (за 1-3 часа до срока); квадратными скобками обозначены град или гололедные отложения с указанием их диаметра в мм.
Облачность - указаны через наклонную черту общая и нижняя облачность в баллах и высота нижней границы облаков в метрах; квадратными скобками обозначены формы облаков: Ci - перистые, Cs - перисто-слоистые, Cc - перисто-кучевые, Ac - высококучевые, As - высокослоистые, Sc - слоисто-кучевые, Ns - слоисто-дождевые, Cu - кучевые, Cb - кучево-дождевые. Подробнее классификацию облаков см. в Атласе облаков (PDF).
T - Температура воздуха - температура, измеренная на высоте 2 м над землей.
Td - Температура точки росы - температура, при понижении до которой содержащийся в воздухе водяной пар достигнет насыщения.
f - Относительная влажность воздуха - влажноcть воздуха, измеренная на высоте 2 м над землей.
Te - Эффективная температура - температура, которую ощущает одетый по сезону человек в тени. Характеристика душности погоды. При расчете учитывается влияние влажности воздуха и скорости ветра на теплоощущения человека.
Tes - Эффективная температура на солнце - температура, которую ощущает человек, с поправкой на солнечный нагрев. Характеристика знойности погоды. Зависит от высоты солнца над горизонтом, облачности и скорости ветра. Ночью, в пасмурную погоду, а также при ветре 12 м/с и более поправка равна нулю.
P - Атмосферное давление - приведенное к уровню моря атмосферное давление.
Po - Атмосферное давление - измеренное на уровне метеостанции атмосферное давление.
Tmin - Минимальная температура - минимум температуры воздуха на высоте 2 м над землей.
Tmax - Максимальная температура - максимум температуры воздуха на высоте 2 м над землей.
R - Количество осадков - Количество выпавших осадков за период времени, мм. При наведении курсора мыши на число - период времени, за который выпало указанное количество осадков.
R24 - Количество осадков - Количество выпавших осадков за 24 часа, мм.
S - Снежный покров - Высота снежного покрова, см. При наведении курсора мыши на число - состояние снежного покрова и степень покрытия местности в баллах.